Location: Arbon
(43.0005°N, 0.7472°E)
Time: 14:04:57
(UTC+00:00)

Envisat - Pass Details

Date: 27 October 2020
Orbit: 764 x 766 km, 98.1° (Epoch: 30 November)

Event Time Altitude Azimuth Distance (km) Brightness Sun altitude
Rises 18:15:08 0° 206° (SSW) 3,220 6.7 -15.1°
Reaches altitude 10° 18:18:05 10° 224° (SW) 2,299 6.2 -15.7°
Maximum altitude 18:21:38 19° 269° (W) 1,762 5.9 -16.3°
Drops below altitude 10° 18:25:12 10° 313° (NW) 2,311 6.1 -17.0°
Sets 18:28:12 0° 332° (NNW) 3,242 6.6 -17.5°
